Date String (YYYY-MM-DD hh:mm:ss) UTC,Instrument flags,Ambient pressure (hPa),Sample flow (lpm),Bypass flow (lpm),Sample temperature (°C),Ambient temperature (°C),ASC tube jacket temperature (°C),LED temperature (°C),Box temperature (°C),Sample RH (%),Span deviation,Mass concentration (μg/m³),Mass concentration (μg/m³),Mass concentration (μg/m³)
DateTimeUTC,F1_M11,P_M11,Q1_M11,Q2_M11,T1_M11,T2_M11,T3_M11,T4_M11,T5_M11,U1_M11,ZSPAN_M11,X2_M11,X0_M11,X1_M11
2022-09-20 05:00:00,,0826.5,5.00,0.00,30.2,29.1,00.0,38.8,32.1,11.3,0000.0,0001.95,0008.97,0001.31
2022-09-20 05:01:00,,0826.6,4.99,0.00,30.2,29.2,00.0,38.9,32.1,11.3,0000.0,0002.04,0009.06,0001.34
2022-09-20 05:02:00,,0826.6,5.00,0.00,30.3,29.2,00.0,38.9,32.2,11.3,0000.0,0002.11,0009.16,0001.37
2022-09-20 05:03:00,,0826.7,5.00,0.00,30.3,29.2,00.0,38.9,32.2,11.2,0000.0,0002.21,0009.21,0001.40
2022-09-20 05:04:00,,0826.7,5.00,0.00,30.3,29.1,00.0,38.9,32.2,11.3,0000.0,0002.29,0009.32,0001.44
2022-09-20 05:05:00,,0826.6,5.00,0.00,30.3,27.9,00.0,38.9,32.1,10.9,0000.0,0002.29,0008.86,0001.46
2022-09-20 05:06:00,,0826.7,5.01,0.00,30.3,27.0,00.0,38.9,32.1,10.6,0000.0,0002.24,0008.49,0001.46
2022-09-20 05:07:00,,0826.7,5.00,0.00,30.2,27.1,00.0,38.9,31.9,10.7,0000.0,0002.17,0008.89,0001.45
2022-09-20 05:08:00,,0826.7,5.00,0.00,30.1,27.3,00.0,38.8,31.8,10.8,0000.0,0002.10,0008.74,0001.44
2022-09-20 05:09:00,,0826.7,5.00,0.00,30.1,27.6,00.0,38.8,31.7,10.9,0000.0,0002.03,0007.95,0001.43
2022-09-20 05:10:00,,0826.7,4.99,0.00,30.1,27.9,00.0,38.8,31.8,11.0,0000.0,0002.04,0007.80,0001.44
2022-09-20 05:11:00,,0826.7,5.00,0.00,30.1,28.2,00.0,38.8,31.8,11.2,0000.0,0002.05,0007.44,0001.44
2022-09-20 05:12:00,,0826.7,4.99,0.00,30.1,28.3,00.0,38.8,31.9,11.0,0000.0,0002.05,0007.84,0001.44
2022-09-20 05:13:00,,0826.7,5.02,0.00,30.1,28.5,00.0,38.8,31.9,11.0,0000.0,0002.03,0007.80,0001.44
2022-09-20 05:14:00,,0826.7,4.99,0.00,30.1,28.6,00.0,38.8,31.9,11.0,0000.0,0001.99,0007.72,0001.42
2022-09-20 05:15:00,,0826.7,5.01,0.00,30.1,28.7,00.0,38.8,32.0,10.9,0000.0,0001.92,0007.43,0001.40
2022-09-20 05:16:00,,0826.7,5.00,0.00,30.1,28.8,00.0,38.8,32.0,10.8,0000.0,0001.92,0007.52,0001.40
2022-09-20 05:17:00,,0826.7,4.99,0.00,30.2,28.9,00.0,38.8,32.0,10.7,0000.0,0001.90,0007.49,0001.40
2022-09-20 05:18:00,,0826.7,5.01,0.00,30.2,28.9,00.0,38.9,32.0,10.7,0000.0,0001.92,0006.76,0001.40
2022-09-20 05:19:00,,0826.9,5.00,0.00,30.2,29.0,00.0,38.9,32.1,10.7,0000.0,0001.94,0005.41,0001.40
2022-09-20 05:20:00,,0826.8,5.00,0.00,30.2,29.0,00.0,38.9,32.1,10.6,0000.0,0001.94,0005.38,0001.40
2022-09-20 05:21:00,,0826.8,5.00,0.00,30.2,29.1,00.0,38.9,32.1,10.5,0000.0,0001.93,0005.48,0001.38
2022-09-20 05:22:00,,0826.8,5.00,0.00,30.3,29.1,00.0,38.9,32.1,10.5,0000.0,0001.89,0005.22,0001.38
2022-09-20 05:23:00,,0826.8,5.01,0.00,30.3,29.1,00.0,39.0,32.2,10.6,0000.0,0001.85,0004.39,0001.37
2022-09-20 05:24:00,,0826.8,4.99,0.00,30.3,28.1,00.0,38.9,32.2,10.6,0000.0,0001.81,0004.31,0001.37
2022-09-20 05:25:00,,0827.1,5.01,0.00,30.3,27.1,00.0,38.9,32.1,10.6,0000.0,0001.81,0005.60,0001.37
2022-09-20 05:26:00,,0827.0,5.00,0.00,30.2,27.1,00.0,38.9,32.0,10.6,0000.0,0001.89,0005.51,0001.38
2022-09-20 05:27:00,,0826.8,5.00,0.00,30.2,27.3,00.0,38.9,31.8,10.7,0000.0,0001.85,0005.09,0001.36
2022-09-20 05:28:00,,0827.1,5.00,0.00,30.1,27.6,00.0,38.8,31.8,10.7,0000.0,0001.88,0005.28,0001.37
2022-09-20 05:29:00,,0827.2,5.00,0.00,30.1,27.9,00.0,38.8,31.8,10.7,0000.0,0001.88,0005.57,0001.37
2022-09-20 05:30:00,,0826.9,5.00,0.00,30.1,28.1,00.0,38.8,31.8,10.7,0000.0,0001.84,0005.33,0001.37
2022-09-20 05:31:00,,0826.9,5.00,0.00,30.1,28.3,00.0,38.8,31.9,10.7,0000.0,0001.83,0005.33,0001.37
2022-09-20 05:32:00,,0827.1,5.00,0.00,30.1,28.5,00.0,38.8,31.9,10.6,0000.0,0001.87,0005.36,0001.38
2022-09-20 05:33:00,,0827.2,4.99,0.00,30.1,28.6,00.0,38.8,31.9,10.7,0000.0,0001.89,0005.34,0001.38
2022-09-20 05:34:00,,0827.0,5.01,0.00,30.1,28.7,00.0,38.8,31.9,10.7,0000.0,0001.90,0005.46,0001.38
2022-09-20 05:35:00,,0827.0,4.99,0.00,30.1,28.8,00.0,38.8,32.0,10.7,0000.0,0001.94,0006.22,0001.38
2022-09-20 05:36:00,,0826.9,5.00,0.00,30.2,28.8,00.0,38.8,32.0,10.7,0000.0,0001.97,0005.97,0001.38
2022-09-20 05:37:00,,0826.9,5.01,0.00,30.2,28.9,00.0,38.9,32.0,10.7,0000.0,0001.93,0005.66,0001.38
2022-09-20 05:38:00,,0827.0,5.00,0.00,30.2,29.0,00.0,38.9,32.1,10.8,0000.0,0001.98,0005.92,0001.40
2022-09-20 05:39:00,,0827.0,5.02,0.00,30.2,29.0,00.0,38.9,32.1,11.0,0000.0,0001.97,0005.89,0001.39
2022-09-20 05:40:00,,0827.0,5.00,0.00,30.3,29.0,00.0,38.9,32.1,11.4,0000.0,0001.98,0005.79,0001.38
2022-09-20 05:41:00,,0827.0,5.01,0.00,30.3,28.0,00.0,38.9,32.1,11.2,0000.0,0001.97,0005.64,0001.38
2022-09-20 05:42:00,,0826.8,5.00,0.00,30.2,26.9,00.0,38.8,32.0,11.0,0000.0,0001.98,0005.58,0001.39
2022-09-20 05:43:00,,0826.9,5.00,0.00,30.2,26.9,00.0,38.8,31.9,11.1,0000.0,0001.96,0005.47,0001.40
2022-09-20 05:44:00,,0826.8,4.99,0.00,30.1,27.1,00.0,38.8,31.7,11.1,0000.0,0001.99,0005.45,0001.42
2022-09-20 05:45:00,,0826.8,5.00,0.00,30.0,27.4,00.0,38.8,31.6,11.3,0000.0,0002.01,0005.43,0001.42
2022-09-20 05:46:00,,0826.8,5.01,0.00,30.0,27.7,00.0,38.7,31.7,11.3,0000.0,0002.04,0005.05,0001.43
2022-09-20 05:47:00,,0826.8,5.01,0.00,30.0,27.9,00.0,38.7,31.7,11.3,0000.0,0002.08,0004.57,0001.45
2022-09-20 05:48:00,,0826.8,4.98,0.00,30.0,28.1,00.0,38.7,31.7,11.2,0000.0,0002.12,0005.75,0001.46
2022-09-20 05:49:00,,0826.8,5.01,0.00,30.0,28.3,00.0,38.7,31.8,11.1,0000.0,0002.09,0006.12,0001.46
2022-09-20 05:50:00,,0826.8,5.00,0.00,30.0,28.4,00.0,38.7,31.8,11.2,0000.0,0002.04,0006.04,0001.47
2022-09-20 05:51:00,,0826.7,4.99,0.00,30.0,28.5,00.0,38.7,31.8,11.6,0000.0,0002.03,0005.74,0001.49
2022-09-20 05:52:00,,0826.8,5.00,0.00,30.0,28.6,00.0,38.7,31.9,11.4,0000.0,0002.09,0005.84,0001.51
2022-09-20 05:53:00,,0826.9,4.99,0.00,30.0,28.7,00.0,38.7,31.9,11.0,0000.0,0002.15,0005.99,0001.54
2022-09-20 05:54:00,,0827.0,5.00,0.00,30.0,28.7,00.0,38.8,31.9,11.1,0000.0,0002.17,0006.56,0001.53
2022-09-20 05:55:00,,0827.0,5.01,0.00,30.1,28.8,00.0,38.8,31.9,11.6,0000.0,0002.14,0006.55,0001.53
2022-09-20 05:56:00,,0827.0,4.99,0.00,30.1,28.8,00.0,38.8,32.0,11.9,0000.0,0002.15,0006.70,0001.56
2022-09-20 05:57:00,,0826.8,5.01,0.00,30.1,28.9,00.0,38.8,32.0,11.5,0000.0,0002.13,0006.36,0001.58
2022-09-20 05:58:00,,0827.2,4.99,0.00,30.2,28.9,00.0,38.8,32.0,11.2,0000.0,0002.10,0006.42,0001.58
2022-09-20 05:59:00,,0827.2,4.99,0.00,30.2,28.9,00.0,38.8,32.0,10.8,0000.0,0002.05,0006.27,0001.58
